Location: Lombray
(49.5154°N, 3.1089°E)
Time: 14:55:35
(UTC+00:00)

Cosmos 2058 Rocket - Pass Details

Date: 15 May 2026
Orbit: 604 x 632 km, 82.5° (Epoch: 10 June)

Event Time Altitude Azimuth Distance (km) Brightness Sun altitude
Exits shadow 22:31:01 40° 202° (SSW) 902 3.5 -19.6°
Maximum altitude 22:32:31 77° 281° (W) 629 3.0 -19.6°
Drops below altitude 10° 22:36:52 10° 7° (N) 1,965 6.6 -19.8°
Sets 22:39:05 0° 9° (N) 2,873 7.6 -19.9°
